Location: Mannheim
(49.4880°N, 8.4650°E)
Time: 06:52:20
(UTC+02:00)

ISS - Pass Details

Date: 20 September 2023
Orbit: 414 x 421 km, 51.6° (Epoch: 02 October)

Event Time Altitude Azimuth Distance (km) Brightness Sun altitude
Rises 19:56:33 0° 245° (WSW) 2,347 1.1 -5.2°
Reaches altitude 10° 19:58:38 10° 244° (WSW) 1,487 0.0 -5.6°
Maximum altitude 20:01:58 77° 159° (SSE) 432 -3.8 -6.1°
Drops below altitude 10° 20:05:20 10° 73° (ENE) 1,497 -1.5 -6.6°
Enters shadow 20:05:59 - 72° (ENE) 1,764 -1.1 -6.8°
